This is the latest recevied weather packets stored in our database for station/object KO6MEX-13. If no packets are shown the sender has not sent any weather packets the latest 1 day(s).
| Time | Temp. | Humidity | Pressure | Rain* | Wind** | Luminosity | Snow |
|---|---|---|---|---|---|---|---|
| 1778003400 | 16.67° C | 66% | 1019.4 hPa | 0 mm | 1.34 m/s, 200° | 786 W/m² | - |
| 1778003097 | 17.22° C | 64% | 1019.3 hPa | 0 mm | 3.13 m/s, 260° | 843 W/m² | - |
| 1778002793 | 16.67° C | 64% | 1019.2 hPa | 0 mm | 2.68 m/s, 213° | 844 W/m² | - |
| 1778002489 | 17.22° C | 62% | 1019.1 hPa | 0 mm | 2.24 m/s, 224° | 810 W/m² | - |
| 1778002187 | 16.67° C | 66% | 1019 hPa | 0 mm | 2.24 m/s, 205° | 780 W/m² | - |
| 1778001885 | 17.22° C | 64% | 1019.1 hPa | 0 mm | 2.68 m/s, 214° | 769 W/m² | - |
| 1778001584 | 16.67° C | 64% | 1019 hPa | 0 mm | 0.89 m/s, 269° | 773 W/m² | - |
| 1778001281 | 16.67° C | 64% | 1018.9 hPa | 0 mm | 2.24 m/s, 216° | 750 W/m² | - |
| 1778000978 | 16.67° C | 64% | 1018.8 hPa | 0 mm | 1.79 m/s, 206° | 739 W/m² | - |
| 1778000674 | 16.67° C | 64% | 1019.2 hPa | 0 mm | 1.79 m/s, 204° | 667 W/m² | - |
| 1778000370 | 16.67° C | 64% | 1019.1 hPa | 0 mm | 0.89 m/s, 194° | 617 W/m² | - |
| 1778000066 | 16.67° C | 64% | 1019 hPa | 0 mm | 2.24 m/s, 205° | 614 W/m² | - |
| 1777999761 | 16.67° C | 63% | 1019.1 hPa | 0 mm | 2.24 m/s, 205° | 607 W/m² | - |
| 1777999459 | 16.67° C | 64% | 1019.1 hPa | 0 mm | 0 m/s | 286 W/m² | - |
| 1777999157 | 16.11° C | 65% | 1019.2 hPa | 0 mm | 1.34 m/s, 216° | 668 W/m² | - |
| 1777998855 | 16.11° C | 65% | 1019.3 hPa | 0 mm | 1.34 m/s, 181° | 377 W/m² | - |
| 1777998554 | 16.67° C | 64% | 1019 hPa | 0 mm | 2.24 m/s, 208° | 189 W/m² | - |
| 1777998249 | 16.67° C | 64% | 1019 hPa | 0 mm | 1.34 m/s, 212° | 579 W/m² | - |
| 1777997947 | 16.67° C | 63% | 1019 hPa | 0 mm | 1.34 m/s, 188° | 510 W/m² | - |
| 1777997643 | 16.67° C | 62% | 1018.9 hPa | 0 mm | 1.34 m/s, 230° | 401 W/m² | - |
| 1777997340 | 16.11° C | 63% | 1018.9 hPa | 0 mm | 0 m/s | 299 W/m² | - |
| 1777997039 | 16.67° C | 63% | 1018.9 hPa | 0 mm | 0.89 m/s, 245° | 401 W/m² | - |
| 1777996735 | 16.67° C | 64% | 1019 hPa | 0 mm | 1.34 m/s, 278° | 373 W/m² | - |
| 1777996431 | 16.67° C | 63% | 1018.8 hPa | 0 mm | 0 m/s | 404 W/m² | - |
| 1777996128 | 16.67° C | 65% | 1018.9 hPa | 0 mm | 0.45 m/s, 177° | 387 W/m² | - |
* Rain latest hour (hover to see other rain measurements)
** Current wind speed in m/s (hover to see current wind gust speed)